• In Latvia
  • List of Countries
  • For 7 days
  • Water Temperature
  • Satellite Maps
  • Weather Map
  • Weather Widgets
  • user-avatar
    Login

    Hourly Weather Zvejniekciems

    Today, 20 October, Saturday

    Time Temperature Precipitation Wind Pressure Humidity
    00:00 +6°C° 0 mm 2 mps 764 mmHg 88%
    01:00 +6°C° 0 mm 2 mps 764 mmHg 89%
    02:00 +6°C° 0 mm 2 mps 764 mmHg 90%
    03:00 +6°C° 0 mm 2 mps 764 mmHg 90%
    04:00 +5°C° 0 mm 2 mps 764 mmHg 91%
    05:00 +5°C° 0 mm 2 mps 764 mmHg 91%
    06:00 +5°C° 0 mm 2 mps 764 mmHg 90%
    07:00 +5°C° 0 mm 2 mps 764 mmHg 90%
    08:00 +6°C° 0 mm 2 mps 764 mmHg 87%
    09:00 +7°C° 0 mm 2 mps 764 mmHg 83%
    10:00 +8°C° 0 mm 2 mps 764 mmHg 78%
    11:00 +9°C° 0 mm 2 mps 764 mmHg 73%
    12:00 +9°C° 0 mm 2 mps 764 mmHg 71%
    13:00 +10°C° 0 mm 2 mps 764 mmHg 68%
    14:00 +10°C° 0 mm 2 mps 764 mmHg 68%
    15:00 +9°C° 0 mm 2 mps 764 mmHg 72%
    16:00 +9°C° 0 mm 1 mps 764 mmHg 77%
    17:00 +8°C° 0 mm 1 mps 764 mmHg 81%
    18:00 +8°C° 0 mm 1 mps 764 mmHg 84%
    19:00 +7°C° 0 mm 1 mps 764 mmHg 86%
    20:00 +7°C° 0 mm 1 mps 765 mmHg 88%
    21:00 +7°C° 0 mm 1 mps 765 mmHg 89%
    22:00 +6°C° 0 mm 1 mps 765 mmHg 90%
    23:00 +6°C° 0 mm 1 mps 765 mmHg 91%

    Tomorrow, 21 October, Sunday

    Time Temperature Precipitation Wind Pressure Humidity
    00:00 +6°C° 0 mm 1 mps 765 mmHg 91%
    01:00 +6°C° 0 mm 1 mps 765 mmHg 92%
    02:00 +6°C° 0 mm 1 mps 766 mmHg 92%
    03:00 +5°C° 0 mm 1 mps 766 mmHg 93%
    04:00 +5°C° 0 mm 1 mps 766 mmHg 93%
    05:00 +5°C° 0 mm 1 mps 766 mmHg 93%
    06:00 +4°C° 0 mm 2 mps 766 mmHg 93%
    07:00 +4°C° 0 mm 2 mps 766 mmHg 93%
    08:00 +4°C° 0 mm 2 mps 766 mmHg 93%
    09:00 +6°C° 0 mm 2 mps 766 mmHg 88%
    10:00 +7°C° 0 mm 2 mps 766 mmHg 83%
    11:00 +9°C° 0 mm 3 mps 766 mmHg 77%
    12:00 +9°C° 0 mm 3 mps 766 mmHg 75%
    13:00 +10°C° 0 mm 3 mps 766 mmHg 73%
    14:00 +11°C° 0 mm 3 mps 766 mmHg 71%
    15:00 +10°C° 0 mm 3 mps 766 mmHg 75%
    16:00 +9°C° 0 mm 3 mps 766 mmHg 79%
    17:00 +8°C° 0 mm 3 mps 765 mmHg 84%
    18:00 +7°C° 0 mm 4 mps 765 mmHg 84%
    19:00 +7°C° 0 mm 4 mps 765 mmHg 85%
    20:00 +6°C° 0 mm 5 mps 765 mmHg 85%
    21:00 +7°C° 0 mm 5 mps 764 mmHg 86%
    22:00 +7°C° 0 mm 5 mps 764 mmHg 87%
    23:00 +7°C° 0 mm 6 mps 764 mmHg 88%

    Day after tomorrow, 22 October, Monday

    Time Temperature Precipitation Wind Pressure Humidity
    00:00 +7°C° 0 mm 6 mps 763 mmHg 89%
    01:00 +7°C° 0 mm 6 mps 763 mmHg 91%
    02:00 +7°C° 0 mm 6 mps 763 mmHg 92%
    03:00 +6°C° 0 mm 7 mps 762 mmHg 91%
    04:00 +8°C° 0 mm 7 mps 762 mmHg 89%
    05:00 +8°C° 0 mm 7 mps 761 mmHg 88%
    06:00 +8°C° 0.2 mm 7 mps 761 mmHg 88%
    07:00 +9°C° 0.2 mm 7 mps 760 mmHg 87%
    08:00 +9°C° 0.2 mm 7 mps 760 mmHg 87%
    09:00 +9°C° 0.8 mm 7 mps 759 mmHg 88%
    10:00 +9°C° 0.8 mm 7 mps 759 mmHg 88%
    11:00 +9°C° 0.8 mm 7 mps 759 mmHg 89%
    12:00 +9°C° 1.5 mm 6 mps 759 mmHg 89%
    13:00 +9°C° 1.5 mm 6 mps 759 mmHg 89%
    14:00 +9°C° 1.5 mm 5 mps 758 mmHg 89%
    15:00 +8°C° 0.3 mm 5 mps 758 mmHg 86%
    16:00 +8°C° 0.3 mm 5 mps 758 mmHg 83%
    17:00 +8°C° 0.3 mm 5 mps 759 mmHg 80%
    18:00 +7°C° 0 mm 5 mps 759 mmHg 78%
    19:00 +7°C° 0 mm 5 mps 759 mmHg 77%
    20:00 +6°C° 0 mm 5 mps 759 mmHg 76%
    21:00 +6°C° 0 mm 5 mps 759 mmHg 76%
    22:00 +5°C° 0 mm 4 mps 759 mmHg 76%
    23:00 +5°C° 0 mm 4 mps 759 mmHg 76%

    23 October, Tuesday

    Time Temperature Precipitation Wind Pressure Humidity
    00:00 +5°C° 0 mm 4 mps 759 mmHg 77%
    01:00 +5°C° 0 mm 4 mps 759 mmHg 77%
    02:00 +4°C° 0 mm 4 mps 759 mmHg 78%
    03:00 +4°C° 0 mm 4 mps 758 mmHg 79%
    04:00 +3°C° 0 mm 5 mps 757 mmHg 80%
    05:00 +3°C° 0 mm 5 mps 756 mmHg 81%
    06:00 +3°C° 0 mm 5 mps 755 mmHg 81%
    07:00 +3°C° 0 mm 6 mps 754 mmHg 81%
    08:00 +3°C° 0 mm 6 mps 754 mmHg 81%
    09:00 +4°C° 0 mm 7 mps 752 mmHg 78%
    10:00 +5°C° 0 mm 7 mps 750 mmHg 76%
    11:00 +5°C° 0 mm 8 mps 749 mmHg 73%
    12:00 +5°C° 1.1 mm 9 mps 747 mmHg 76%
    13:00 +5°C° 1.1 mm 10 mps 745 mmHg 79%
    14:00 +4°C° 1.1 mm 11 mps 743 mmHg 82%
    15:00 +5°C° 1 mm 10 mps 741 mmHg 84%
    16:00 +5°C° 1 mm 8 mps 740 mmHg 86%
    17:00 +5°C° 1 mm 7 mps 738 mmHg 87%
    18:00 +5°C° 0.5 mm 7 mps 738 mmHg 88%
    19:00 +5°C° 0.5 mm 6 mps 737 mmHg 89%
    20:00 +6°C° 0.5 mm 5 mps 736 mmHg 90%
    21:00 +5°C° 0.4 mm 6 mps 736 mmHg 89%
    22:00 +5°C° 0.4 mm 7 mps 736 mmHg 88%
    23:00 +5°C° 0.4 mm 8 mps 736 mmHg 87%

    24 October, Wednesday

    Time Temperature Precipitation Wind Pressure Humidity
    00:00 +5°C° 0.4 mm 8 mps 735 mmHg 83%
    01:00 +5°C° 0.4 mm 8 mps 735 mmHg 79%
    02:00 +4°C° 0.4 mm 8 mps 735 mmHg 75%
    03:00 +4°C° 0.1 mm 8 mps 735 mmHg 75%
    04:00 +4°C° 0.1 mm 8 mps 735 mmHg 76%
    05:00 +4°C° 0.1 mm 8 mps 735 mmHg 77%
    06:00 +4°C° 0.4 mm 8 mps 735 mmHg 78%
    07:00 +4°C° 0.4 mm 8 mps 735 mmHg 80%
    08:00 +4°C° 0.4 mm 8 mps 734 mmHg 82%
    09:00 +3°C° 0.5 mm 9 mps 735 mmHg 81%
    10:00 +5°C° 0.5 mm 10 mps 735 mmHg 80%
    11:00 +5°C° 0.5 mm 10 mps 735 mmHg 80%
    12:00 +4°C° 0.5 mm 11 mps 736 mmHg 80%
    13:00 +4°C° 0.5 mm 11 mps 736 mmHg 80%
    14:00 +4°C° 0.5 mm 11 mps 737 mmHg 80%
    15:00 +4°C° 0.4 mm 11 mps 738 mmHg 80%
    16:00 +4°C° 0.4 mm 11 mps 738 mmHg 81%
    17:00 +4°C° 0.4 mm 11 mps 739 mmHg 81%
    18:00 +4°C° 0.5 mm 11 mps 740 mmHg 80%
    19:00 +4°C° 0.5 mm 11 mps 741 mmHg 79%
    20:00 +4°C° 0.5 mm 11 mps 742 mmHg 78%
    21:00 +5°C° 0 mm 10 mps 743 mmHg 78%
    22:00 +3°C° 0 mm 10 mps 743 mmHg 77%
    23:00 +3°C° 0 mm 9 mps 744 mmHg 76%

    25 October, Thursday

    Time Temperature Precipitation Wind Pressure Humidity
    00:00 +3°C° 0 mm 9 mps 744 mmHg 75%
    01:00 +4°C° 0 mm 8 mps 745 mmHg 75%
    02:00 +2°C° 0 mm 8 mps 745 mmHg 74%
    03:00 +3°C° 0.1 mm 7 mps 745 mmHg 76%
    04:00 +3°C° 0.1 mm 7 mps 745 mmHg 77%
    05:00 +3°C° 0.1 mm 7 mps 746 mmHg 79%
    06:00 +3°C° 0.2 mm 7 mps 746 mmHg 80%
    07:00 +3°C° 0.2 mm 7 mps 746 mmHg 80%
    08:00 +3°C° 0.2 mm 7 mps 746 mmHg 81%
    09:00 +4°C° 0.2 mm 6 mps 745 mmHg 78%
    10:00 +5°C° 0.2 mm 6 mps 745 mmHg 75%
    11:00 +5°C° 0.2 mm 6 mps 745 mmHg 72%
    12:00 +5°C° 0.1 mm 6 mps 745 mmHg 72%
    13:00 +6°C° 0.1 mm 5 mps 744 mmHg 72%
    14:00 +6°C° 0.1 mm 5 mps 744 mmHg 71%
    15:00 +5°C° 0.2 mm 4 mps 743 mmHg 74%
    16:00 +5°C° 0.2 mm 3 mps 743 mmHg 76%
    17:00 +4°C° 0.2 mm 3 mps 742 mmHg 78%
    18:00 +5°C° 0.3 mm 2 mps 742 mmHg 80%
    19:00 +5°C° 0.3 mm 2 mps 742 mmHg 82%
    20:00 +5°C° 0.3 mm 2 mps 741 mmHg 85%
    21:00 +4°C° 0.2 mm 2 mps 741 mmHg 86%
    22:00 +4°C° 0.2 mm 2 mps 741 mmHg 87%
    23:00 +4°C° 0.2 mm 2 mps 741 mmHg 89%
    Show more